Theta_e
347 344 342 342 344 344 343 343 343 343 338 335 337 337 338 340 338 336 335 329 322 319 319 320 322 325 327 330 332 334 334 335 336 335 334 333 331 330 333 335 335 335 335 335 336 335 334 332 330 329 329 329 331 333 334 335 335 335 336 336 335 335 334 333 333 332 331 330 329 328 326 325 324 324 325 325 327 328 328 328 329 330 330 330 329
345 342 340 341 342 342 342 340 341 342 340 337 338 334 333 338 338 336 335 332 328 327 327 324 322 322 323 328 332 335 336 335 335 334 334 332 330 331 335 336 336 335 335 336 336 335 332 330 328 328 330 331 332 333 334 335 335 336 336 335 335 334 334 333 332 331 330 329 328 325 322 321 320 319 322 325 326 326 324 325 327 328 328 328 328
342 340 340 340 340 341 341 340 340 342 340 337 338 336 334 335 337 337 335 334 334 334 333 329 327 327 327 330 334 336 335 334 333 334 333 331 331 334 335 335 335 336 336 336 335 333 330 327 327 329 331 332 332 334 335 334 335 335 335 334 334 333 333 332 331 330 329 328 327 325 324 321 318 318 322 324 324 323 324 326 327 327 328 328 328
341 339 340 340 340 340 341 341 341 342 340 336 337 339 336 332 333 336 336 335 335 335 335 333 332 332 333 333 334 335 334 332 333 333 332 332 333 335 334 333 336 336 333 333 333 331 329 328 328 330 332 332 333 333 333 333 334 334 334 333 333 333 332 331 329 328 327 326 326 326 326 324 323 323 322 321 322 324 325 326 326 327 327 328 328
341 340 340 341 341 340 341 341 342 341 338 335 336 337 334 330 330 333 336 336 335 335 335 335 334 334 335 334 334 335 334 332 333 332 332 334 335 334 333 333 335 334 331 333 333 332 332 331 331 332 333 333 333 332 331 332 333 333 333 333 332 332 330 329 328 327 327 326 326 326 326 326 326 327 326 324 324 325 326 326 326 327 327 328 328
342 341 341 341 341 341 341 341 342 339 334 333 336 335 331 329 330 334 336 336 336 336 335 336 335 334 335 335 334 334 333 332 331 331 333 334 335 334 332 333 335 333 333 335 335 334 334 332 332 332 333 333 332 331 331 332 332 333 333 333 332 331 329 328 328 327 326 325 325 325 326 326 327 327 327 327 326 325 326 326 327 327 327 328 328
341 341 341 340 341 341 341 341 341 337 332 335 337 334 332 331 330 333 336 336 336 336 335 336 335 335 334 334 333 331 330 331 330 332 334 334 334 334 333 334 334 333 335 336 335 335 334 333 333 332 332 332 332 332 332 333 334 333 333 331 329 328 328 327 327 326 325 324 323 324 325 326 326 327 328 328 328 327 326 327 327 327 327 327 327
341 340 341 341 341 341 341 341 339 336 335 337 338 335 333 332 331 333 335 336 336 335 335 335 335 335 334 333 332 330 330 332 332 334 335 334 334 333 334 335 333 334 336 336 335 335 335 334 334 333 333 333 333 333 333 334 333 332 330 328 327 326 325 325 325 325 324 323 323 323 324 325 326 327 328 329 329 328 328 327 327 327 327 327 327
341 341 342 341 341 341 341 340 338 337 337 338 338 336 336 335 334 335 336 336 336 335 335 334 334 333 331 329 328 330 333 334 334 335 335 334 333 333 334 334 333 335 336 335 335 335 335 334 334 333 333 333 333 333 332 331 330 328 326 325 324 323 323 323 324 323 323 323 323 324 325 326 327 328 328 328 328 329 328 327 327 327 327 327 327
341 342 342 342 341 340 339 338 338 338 336 337 339 338 337 337 336 336 336 336 336 335 335 334 334 331 327 327 330 333 335 335 334 335 334 333 333 334 334 333 334 336 336 336 335 335 334 334 333 333 333 333 332 331 329 328 326 325 323 323 321 320 320 321 322 323 323 324 325 325 326 327 328 328 327 327 327 328 328 327 327 327 327 327 326
341 341 342 341 340 338 338 338 339 338 337 338 340 339 338 337 337 336 336 336 336 336 335 335 334 329 326 330 334 335 335 334 334 334 334 333 333 334 333 333 335 336 336 336 335 335 335 334 333 332 332 332 331 328 326 325 324 322 321 320 319 318 319 321 323 324 324 325 325 326 326 327 327 327 327 327 327 327 327 327 327 326 325 326 324
339 341 340 339 339 338 338 339 339 339 339 340 339 339 338 337 337 337 336 336 336 336 335 334 331 326 326 333 335 335 334 334 334 333 333 332 332 334 334 335 337 336 336 336 336 335 334 333 332 331 331 331 328 325 322 321 320 318 318 318 318 319 320 322 324 325 325 325 325 325 325 325 327 328 327 328 327 327 326 326 326 326 325 324 323
338 340 340 338 337 337 338 339 339 339 339 340 339 338 337 337 337 337 336 336 335 336 335 333 330 326 327 333 335 334 335 334 333 332 331 331 332 334 335 336 337 336 336 336 336 335 334 333 332 331 329 328 325 322 319 318 316 315 315 316 318 319 321 323 324 324 324 324 325 324 324 325 326 326 326 326 327 326 326 326 325 325 324 324 323
337 338 339 339 337 336 336 337 338 339 339 340 339 338 337 337 338 337 337 337 335 336 335 331 330 328 328 331 333 333 334 334 333 332 331 330 332 334 336 337 337 336 336 336 336 336 335 334 332 329 327 324 321 319 317 316 314 314 315 317 319 320 321 323 323 323 324 325 325 324 324 324 324 324 324 325 325 325 325 326 326 325 324 324 323
334 336 339 339 338 336 335 336 338 338 339 339 338 337 337 337 337 337 337 336 336 335 333 330 331 330 329 329 331 333 334 333 332 331 331 331 333 335 336 337 337 336 335 336 335 335 334 333 331 328 325 320 317 316 315 314 314 314 317 318 319 320 321 322 322 323 323 324 324 324 324 323 323 323 323 323 323 323 324 324 325 325 325 324 323
333 336 338 338 338 337 337 337 337 338 338 338 338 337 337 337 337 337 336 336 335 333 330 330 332 333 332 332 333 334 334 332 330 329 331 333 335 335 334 335 335 335 335 335 334 334 333 332 331 328 323 318 316 314 313 313 314 316 319 320 321 321 321 322 322 322 322 322 322 322 322 322 322 322 322 323 323 323 323 323 323 323 324 324 323
334 336 337 337 337 337 337 337 337 338 338 337 337 337 337 337 337 336 336 335 335 332 330 332 335 335 334 334 335 335 333 331 330 331 333 336 336 333 332 334 334 334 335 335 334 333 332 332 330 327 321 317 315 313 312 314 316 319 320 321 321 321 322 322 322 322 321 321 321 321 321 322 322 322 322 322 321 321 321 322 322 322 322 322 323
334 335 336 337 337 337 337 337 337 337 337 337 336 337 337 336 336 336 336 335 335 334 334 335 336 335 335 335 335 333 332 332 333 334 335 336 334 331 332 334 334 334 334 334 333 333 332 331 329 326 320 315 313 313 314 316 318 320 321 321 322 322 321 321 321 321 321 321 320 320 320 320 320 320 320 320 320 320 321 321 321 322 321 321 322
334 335 336 337 337 337 336 336 337 336 336 336 336 336 336 336 336 336 337 336 336 335 336 337 337 336 335 335 334 332 333 335 336 335 336 335 332 331 332 334 334 334 333 333 333 333 332 331 328 324 319 314 313 314 316 318 319 320 321 321 321 321 321 320 320 320 320 319 319 319 319 318 318 319 319 319 320 320 320 321 321 322 322 321 320
335 335 336 337 336 336 336 336 337 336 336 336 336 336 336 336 337 337 337 338 337 336 337 337 336 336 335 334 332 332 335 336 335 334 334 333 332 332 333 334 334 333 333 333 333 332 331 329 326 321 316 313 314 317 318 319 320 321 321 321 320 320 319 319 319 318 318 318 318 318 317 317 318 318 318 319 319 319 319 319 320 321 321 321 320
335 335 335 336 336 335 336 337 337 336 336 336 336 335 336 337 337 338 337 338 338 338 337 336 336 336 335 334 333 334 336 336 334 333 333 333 334 334 334 334 333 333 333 333 332 330 328 327 323 318 314 314 317 319 320 320 320 321 321 320 319 318 317 317 317 318 318 318 317 316 316 316 317 317 317 317 317 317 317 317 318 319 320 319 319
335 335 335 335 335 335 336 337 336 336 336 336 335 335 336 337 337 337 337 337 338 338 337 337 336 335 334 334 334 335 336 335 334 333 333 333 333 333 333 333 333 333 332 331 330 328 326 322 318 314 314 316 319 320 320 320 319 319 318 318 318 317 317 317 317 318 318 317 316 315 315 315 316 316 316 316 316 316 316 316 316 316 317 317 317
334 335 335 335 335 335 336 336 336 335 335 335 335 335 335 336 337 337 337 337 337 337 337 338 336 335 334 335 335 335 335 334 333 333 333 333 332 332 332 332 332 332 330 329 327 325 322 318 314 314 317 318 319 319 319 318 317 317 316 316 316 316 316 317 317 318 318 317 316 315 315 315 315 315 315 315 315 315 315 315 314 315 315 315 315
334 334 335 334 334 335 336 336 336 335 335 335 334 335 335 336 337 337 336 336 335 335 337 337 336 335 334 335 335 334 334 333 333 332 332 332 332 332 332 332 331 329 327 326 324 322 318 315 315 317 318 319 319 318 317 317 316 316 316 316 316 316 316 317 317 317 317 316 316 316 315 314 314 314 314 314 314 314 313 313 313 313 314 314 314
334 334 334 334 334 335 335 335 335 335 335 334 334 335 336 337 337 336 335 335 334 335 336 337 337 335 335 334 334 333 333 332 331 331 331 331 331 331 331 331 329 327 325 323 322 319 316 315 317 318 319 319 318 317 316 316 315 316 316 315 315 316 316 317 316 316 315 315 315 315 315 314 313 313 314 313 313 313 313 313 313 313 313 313 313
334 334 334 334 334 335 335 334 334 334 335 334 335 335 336 337 337 336 335 334 334 335 336 337 336 335 335 334 333 332 332 332 331 331 331 331 331 331 330 329 327 325 324 321 318 316 316 317 319 319 319 318 316 316 316 315 315 316 315 315 315 316 316 316 316 315 314 314 314 314 313 313 313 313 313 312 312 312 312 312 312 312 312 313 313
334 335 334 334 334 334 334 334 333 334 335 335 335 335 336 336 336 336 336 334 334 335 336 337 336 335 334 332 332 332 331 332 332 331 331 331 331 330 328 327 326 325 322 318 316 316 317 319 319 319 318 316 316 316 315 315 316 316 315 315 315 315 316 315 314 313 313 312 312 312 312 312 312 312 312 312 311 311 311 311 311 311 311 312 312
334 335 334 335 335 334 333 334 333 333 334 334 335 335 335 335 334 335 336 335 334 335 336 336 336 334 333 331 331 332 331 331 331 331 331 331 330 329 327 326 325 322 319 316 317 318 318 319 318 317 316 315 315 315 315 316 316 315 315 315 314 314 314 313 312 311 312 311 311 311 311 311 311 311 310 311 310 310 310 310 309 309 310 311 312
334 335 335 335 335 335 334 334 334 334 334 333 334 335 335 335 334 335 335 334 334 335 335 336 335 332 332 331 331 331 331 331 332 331 331 330 329 328 326 324 322 318 317 317 318 319 318 318 317 316 316 315 315 315 315 315 315 314 314 314 313 313 312 311 311 311 311 311 310 310 310 310 310 309 310 310 309 309 309 308 308 307 308 310 311
335 335 335 335 335 335 334 334 334 335 335 334 334 336 335 336 335 335 334 333 333 335 335 335 333 332 332 331 331 331 331 331 332 331 331 330 328 327 325 322 318 317 318 318 318 318 317 317 316 315 315 315 314 315 314 314 314 313 313 313 312 312 311 311 310 310 310 310 310 310 309 309 309 309 309 308 308 308 307 307 306 306 306 308 310
335 335 336 336 336 335 334 334 333 335 336 335 335 337 336 336 335 335 334 333 333 334 334 333 332 332 332 332 331 331 331 331 331 330 330 329 327 325 323 319 317 317 318 318 318 317 316 316 315 315 314 314 314 314 313 313 313 312 312 312 311 311 310 310 310 309 310 310 310 310 309 308 308 308 308 308 307 307 306 305 305 305 305 306 308
336 336 336 336 335 334 334 334 334 335 337 337 336 337 337 336 335 334 333 333 334 334 332 331 331 332 332 332 331 332 331 331 330 330 329 327 324 323 320 317 317 318 317 317 317 316 315 315 314 314 314 314 314 313 313 312 312 311 311 311 310 310 310 309 309 309 309 310 310 310 309 308 307 307 307 307 307 306 305 304 304 304 304 305 306
336 336 337 336 334 333 334 334 334 335 336 337 336 335 336 335 334 333 333 333 334 333 331 331 331 332 332 331 331 331 331 330 330 329 326 324 322 321 318 316 317 317 316 316 316 315 315 314 314 314 313 313 313 312 312 312 311 311 311 310 310 310 309 308 308 308 309 310 310 310 309 308 307 307 307 307 306 306 304 304 304 304 303 303 304
336 336 336 335 334 334 335 335 335 334 335 337 336 335 335 334 334 333 333 333 333 332 331 331 332 331 331 330 330 331 331 330 329 328 325 322 320 318 317 317 317 316 316 316 315 314 314 314 313 313 312 312 312 311 311 311 310 310 308 307 308 308 307 307 307 307 309 309 310 310 309 308 307 307 306 306 306 305 304 303 303 303 302 302 303
336 334 335 336 335 335 336 335 335 335 336 336 336 335 335 334 334 333 333 333 332 331 331 332 332 331 330 330 330 330 330 329 328 326 323 320 318 317 317 317 316 316 315 315 314 314 313 313 313 312 312 311 311 311 311 310 308 307 304 302 303 304 304 305 306 307 308 309 309 309 308 307 307 306 305 305 305 303 302 302 301 301 301 300 301
336 336 336 335 334 335 336 336 335 334 334 335 335 335 334 334 333 334 333 332 332 331 332 333 332 331 329 329 329 329 329 327 326 324 321 318 316 316 317 316 315 315 315 314 314 313 313 312 312 312 311 311 311 310 310 308 306 304 303 301 301 301 302 303 304 306 307 308 309 309 308 307 306 305 305 304 303 302 300 300 300 300 300 300 300
337 336 335 332 333 335 336 336 336 335 334 335 335 335 334 334 334 334 333 332 332 332 332 332 332 331 329 329 329 329 328 326 324 321 318 316 315 316 316 315 315 315 314 314 313 313 312 312 312 311 311 311 311 311 310 308 306 304 302 300 299 300 301 301 302 304 305 306 307 307 307 306 305 305 304 302 301 301 300 300 300 299 299 299 299
335 335 333 331 333 335 335 336 336 335 335 335 335 334 334 333 334 334 333 332 332 332 332 332 332 332 330 330 329 328 327 324 321 319 316 315 315 316 316 315 315 314 314 313 313 312 312 311 311 311 311 311 311 311 310 309 307 304 301 299 299 299 299 300 302 303 304 305 305 305 305 304 303 303 302 301 301 301 301 300 300 299 299 299 298
334 334 334 333 333 332 333 335 335 334 334 334 333 333 333 333 333 333 333 332 332 332 332 332 331 331 330 329 328 327 324 322 319 317 315 314 314 315 315 314 314 314 313 313 312 312 312 311 311 311 311 311 311 310 309 309 307 304 300 298 298 298 299 300 302 303 304 304 304 303 303 302 302 301 302 301 302 302 301 300 300 300 300 299 299
334 334 334 333 332 332 332 334 334 333 333 332 332 332 332 332 332 332 332 332 331 331 331 330 329 329 328 327 326 324 321 319 318 316 314 314 314 315 314 314 313 313 313 312 312 312 311 311 311 311 311 311 311 310 309 308 307 302 298 297 298 298 298 300 302 303 303 303 302 302 302 302 302 302 302 302 302 302 302 301 300 300 300 300 300
333 333 333 332 331 331 332 332 333 333 332 331 331 331 332 332 332 332 332 332 331 330 329 328 328 328 326 324 322 320 318 317 317 315 314 314 315 315 314 313 313 312 312 312 312 311 311 311 311 311 311 311 310 309 308 308 305 300 297 297 297 297 298 299 301 302 302 302 301 302 303 303 302 302 302 302 302 302 302 301 301 301 301 300 300
332 332 331 331 330 331 331 331 331 331 331 330 330 330 330 330 330 329 330 330 330 328 327 327 327 325 324 321 318 317 316 316 315 315 315 315 314 314 313 313 313 312 312 312 311 311 311 311 311 311 310 310 309 308 308 307 304 298 296 296 296 297 298 298 299 300 300 300 301 302 302 303 302 302 302 302 302 302 301 301 301 301 301 300 300
330 329 330 330 330 330 330 331 331 330 329 329 330 330 329 329 328 327 327 327 327 326 325 324 323 322 320 318 316 316 316 316 315 315 315 314 313 313 313 313 313 313 312 312 311 311 311 311 311 310 310 309 308 307 307 307 303 298 295 296 296 296 297 297 297 298 298 299 300 301 302 303 303 302 302 301 301 301 301 301 301 301 301 301 300
329 328 329 330 330 330 330 330 330 329 328 329 329 329 329 328 328 327 327 326 325 324 324 322 319 318 318 317 316 316 316 316 316 315 314 314 314 313 313 313 313 312 312 311 311 311 311 311 310 310 309 308 307 307 307 306 301 296 295 296 296 296 296 296 296 296 296 297 298 300 301 302 302 302 302 302 301 301 301 301 301 301 301 301 300
328 328 329 329 330 330 329 327 327 326 327 326 326 327 327 327 327 326 326 324 323 322 322 320 318 317 317 316 316 316 316 316 315 315 314 314 314 313 313 312 312 311 311 311 311 311 311 310 310 309 309 308 307 307 307 304 298 295 295 295 295 295 296 296 295 295 295 296 296 297 298 298 300 301 302 302 301 301 301 301 301 301 301 301 300
327 327 327 328 328 327 325 324 323 323 324 324 323 324 325 325 325 324 324 323 321 320 319 318 317 317 316 316 316 316 316 316 315 315 314 314 313 312 312 311 311 310 310 311 310 310 310 309 309 309 308 308 307 307 305 301 296 295 295 295 295 295 295 295 295 295 295 295 295 296 296 296 297 298 300 302 302 301 301 301 301 301 301 301 300
326 326 326 327 326 324 322 321 321 320 320 321 320 321 323 323 323 322 321 320 319 318 318 317 317 316 316 317 317 316 316 316 316 315 314 313 313 312 311 311 310 309 309 309 309 309 308 308 308 308 308 307 306 305 301 297 295 295 295 295 295 295 295 295 295 295 295 295 294 294 294 295 295 296 298 300 301 301 301 301 301 301 300 300 300
324 324 325 325 325 323 320 320 320 320 319 319 319 319 320 320 319 319 318 318 318 317 317 317 316 316 317 317 317 316 316 316 315 314 313 313 312 311 311 311 310 308 308 309 308 306 305 305 304 304 304 303 302 300 297 295 295 295 294 295 295 294 295 295 295 295 295 294 294 294 294 294 294 294 296 298 300 300 301 301 300 300 300 300 300
322 322 323 323 324 322 320 319 319 319 318 318 318 317 317 318 317 317 317 317 317 317 317 316 316 317 317 317 316 316 315 315 314 313 313 313 312 311 311 310 308 307 306 305 304 302 300 299 299 299 298 298 297 296 295 294 294 294 294 294 295 295 295 296 295 295 295 295 295 295 294 294 294 294 294 296 297 299 300 300 300 300 300 300 300
321 321 322 323 323 322 320 318 319 318 318 317 317 316 316 316 316 316 316 316 316 316 316 316 316 316 316 316 316 315 314 314 314 313 313 312 311 310 308 306 304 302 300 299 298 297 296 296 296 295 295 295 295 294 294 294 294 294 294 294 295 295 296 295 295 295 295 295 295 295 295 295 294 294 294 294 295 296 298 299 299 300 300 300 300
320 320 321 322 322 321 320 319 319 319 318 318 317 316 315 315 315 316 316 316 316 316 316 316 316 316 316 316 315 314 314 314 313 313 312 312 311 308 303 301 300 298 297 297 296 296 296 297 297 296 295 295 295 294 295 294 294 294 295 295 295 295 295 295 295 296 296 296 295 295 295 295 294 294 294 293 294 294 295 297 298 299 299 299 299
Wind_Speed
27 24 21 22 28 33 35 35 32 32 32 33 33 29 28 29 28 27 26 26 28 30 31 31 32 31 30 29 27 25 24 22 20 18 16 14 13 13 13 13 13 13 13 12 12 11 12 12 12 11 9 9 8 6 6 6 7 8 9 10 11 12 13 14 16 18 20 21 21 20 19 18 17 15 15 14 13 12 13 14 14 15 16 16 18
26 23 23 23 24 29 34 36 37 37 35 35 34 30 29 29 28 28 26 27 30 30 31 31 31 31 31 30 27 25 24 23 20 19 17 14 14 14 14 14 13 13 13 11 10 12 12 12 12 10 8 9 8 7 7 7 8 10 11 11 12 13 13 15 17 19 20 22 24 24 23 21 17 15 13 11 10 12 13 13 13 14 15 15 16
27 25 25 25 25 29 35 39 41 40 37 36 35 34 34 31 28 29 30 30 30 30 31 31 30 29 28 27 26 26 24 22 20 18 16 15 15 15 16 15 14 14 12 9 9 11 11 11 11 9 9 10 8 7 8 8 10 12 12 13 13 14 15 16 18 19 20 21 22 22 23 23 18 14 10 10 13 14 11 11 13 14 15 15 16
31 28 27 26 28 31 36 41 43 41 38 36 37 37 35 29 28 30 32 33 32 30 30 30 29 28 26 24 24 25 24 22 21 19 17 17 18 18 17 15 14 14 11 9 9 9 9 10 9 9 9 9 8 9 9 10 11 12 14 15 15 15 16 16 17 17 18 18 17 17 18 17 14 15 18 18 16 13 12 13 14 14 15 17 17
35 32 31 31 32 33 35 40 42 40 39 38 40 40 34 30 30 32 34 35 33 32 31 30 29 28 27 26 26 26 25 23 23 21 20 20 20 19 17 14 14 13 11 10 9 8 9 10 9 9 8 9 10 10 10 11 12 13 14 15 16 16 16 16 15 15 15 15 14 14 12 11 14 20 23 21 17 16 17 17 16 15 17 18 18
37 35 34 34 35 34 35 40 42 41 40 40 42 40 35 32 33 34 36 37 35 34 33 32 30 29 30 30 29 28 27 26 24 23 22 21 20 18 16 15 14 14 12 11 10 10 10 9 9 8 8 10 11 11 11 13 13 14 15 16 17 17 17 16 15 15 14 13 12 11 10 12 17 21 21 20 22 22 20 19 19 18 18 18 18
37 36 36 35 36 36 38 42 42 41 40 41 42 39 36 34 33 34 37 38 38 38 36 34 32 31 30 30 30 29 28 26 23 22 22 20 19 18 16 16 16 15 13 11 12 11 10 9 9 8 8 10 12 12 13 14 14 15 16 17 17 17 18 17 17 16 14 13 12 12 12 13 16 18 19 21 24 25 24 22 21 20 19 18 17
41 39 37 37 37 38 40 42 42 40 40 42 42 41 39 37 35 36 38 39 40 40 38 36 35 33 31 30 30 28 26 24 22 22 21 20 19 17 16 18 18 15 13 12 13 12 11 10 9 9 10 11 12 13 14 15 15 16 16 17 17 18 19 18 17 17 16 14 13 12 13 13 14 15 16 17 20 25 28 26 24 23 22 19 18
42 41 40 40 40 40 41 42 42 41 41 43 44 44 43 42 39 39 40 41 41 40 39 37 35 33 32 30 30 28 25 22 21 22 22 20 19 18 18 19 18 14 13 13 12 13 12 10 10 10 10 11 12 13 14 15 16 16 16 17 17 18 17 17 16 16 15 14 13 13 13 13 14 14 14 15 17 21 26 28 28 27 26 22 19
42 41 41 41 41 40 40 42 43 43 42 43 45 46 45 44 43 42 42 42 42 40 39 37 34 33 32 31 29 28 25 23 22 22 22 21 19 19 19 19 17 15 14 13 13 13 12 11 10 10 11 11 13 14 14 15 16 16 17 17 16 16 15 15 14 13 12 11 11 12 12 13 15 15 16 17 18 20 23 26 26 27 29 26 22
42 41 41 40 40 40 42 44 45 45 44 44 46 46 46 45 44 43 43 43 42 40 38 35 32 32 33 31 27 25 24 23 24 24 23 21 20 20 20 19 18 16 16 15 15 14 13 12 10 10 11 12 13 14 14 15 16 17 17 16 15 14 13 13 12 12 11 11 11 11 11 12 13 15 17 18 19 20 21 23 24 25 28 28 25
41 41 42 41 42 43 44 46 46 45 46 46 47 47 46 45 43 42 42 41 40 39 36 33 31 32 33 30 25 23 22 23 24 24 23 22 22 22 21 20 19 18 17 17 16 15 14 12 10 10 11 13 13 14 14 15 15 15 15 14 13 13 12 12 12 13 12 11 11 11 11 11 12 13 15 16 18 19 20 22 22 23 26 28 28
41 42 43 44 45 45 46 46 45 45 46 47 47 46 45 44 42 41 40 39 39 37 34 31 30 32 33 30 25 21 21 23 24 24 22 22 22 23 22 21 21 20 19 18 17 16 15 11 10 11 12 13 13 14 14 14 14 13 13 12 12 12 11 12 13 13 12 11 11 12 13 12 13 14 15 16 18 19 21 22 23 24 26 29 30
42 41 44 45 46 46 46 46 45 44 45 46 46 45 43 42 41 39 39 38 37 36 33 31 30 30 30 30 26 21 21 22 23 23 22 22 23 23 23 22 21 20 19 18 17 16 15 12 11 11 12 13 13 13 14 13 13 12 12 12 11 11 11 12 13 13 12 12 12 14 14 14 14 15 16 17 19 20 21 23 25 26 26 28 29
39 39 43 46 46 45 45 45 44 43 43 44 45 43 41 40 40 39 38 37 36 35 33 31 30 27 27 28 26 23 22 22 22 22 22 23 23 23 23 22 22 20 19 18 17 16 15 12 12 12 12 13 13 13 14 13 13 12 12 11 11 11 12 12 13 13 13 13 14 15 16 16 17 18 19 19 20 20 21 23 24 25 26 27 28
38 39 43 44 44 44 44 43 43 42 41 42 43 41 40 39 39 38 37 36 34 32 32 31 29 26 26 26 25 24 23 22 21 21 22 23 24 23 22 22 22 20 19 18 17 16 15 13 13 13 12 13 13 13 14 14 13 11 10 10 9 10 11 12 13 14 14 15 16 17 18 19 20 21 21 21 20 20 20 21 22 23 24 25 26
39 41 42 42 42 43 42 42 42 40 40 41 41 40 39 39 38 38 37 35 32 31 31 31 28 26 26 25 24 24 23 22 21 21 22 24 24 23 22 23 22 20 19 18 17 16 15 15 14 14 13 13 13 13 13 13 11 9 9 8 8 10 10 11 13 14 15 16 17 18 19 20 21 21 21 20 20 19 18 18 19 20 20 22 23
36 37 37 39 41 41 39 38 38 38 37 37 37 38 38 37 36 37 36 34 32 31 31 29 28 27 26 25 25 24 22 21 20 21 22 25 25 23 23 23 22 20 19 18 16 16 16 16 15 14 13 13 13 13 12 11 9 8 8 7 8 9 10 11 12 14 15 16 18 19 19 18 18 17 17 16 15 15 15 15 16 17 17 18 20
33 35 36 38 40 39 35 34 34 35 34 33 34 35 35 34 34 35 35 33 32 32 31 29 28 27 26 26 25 24 23 21 20 22 24 25 25 23 23 22 21 20 18 17 17 18 17 17 16 14 12 12 12 11 10 8 7 7 7 7 8 9 10 11 12 13 14 15 16 16 15 14 14 14 13 13 12 11 11 12 12 14 14 16 18
37 38 39 39 38 36 34 32 32 33 32 31 31 32 32 31 31 32 33 32 33 33 30 28 26 26 26 26 25 24 22 20 21 23 24 25 24 23 22 22 20 19 18 18 19 19 18 18 15 13 12 11 10 9 7 6 5 6 6 7 7 8 9 11 11 12 13 13 14 13 13 13 13 13 12 12 12 11 11 11 11 11 11 13 14
39 38 38 37 35 33 32 29 29 32 31 30 30 30 30 29 29 31 32 31 33 32 28 26 25 26 26 26 26 24 22 21 22 23 24 24 22 22 22 21 19 19 19 20 20 20 18 17 14 13 11 9 8 6 4 4 5 6 6 7 7 7 8 9 10 12 12 12 12 12 12 13 12 12 11 11 11 12 12 12 11 12 11 11 13
33 32 33 32 31 31 30 27 28 30 29 29 29 29 29 28 28 30 31 31 33 32 29 27 26 26 26 26 26 24 23 22 23 23 23 22 22 21 21 20 20 20 21 21 21 19 17 14 12 12 10 7 5 4 3 3 4 5 6 6 7 8 8 9 10 11 11 11 9 9 10 12 12 12 11 12 13 13 13 13 13 13 13 12 13
26 27 28 28 29 30 29 28 28 28 27 27 28 28 28 28 29 30 30 31 31 30 29 27 26 27 27 26 25 24 23 23 23 23 22 21 21 21 20 20 21 21 21 21 19 17 14 12 10 10 8 6 4 3 3 3 4 5 5 5 6 8 8 9 9 10 10 8 7 7 9 11 12 12 13 13 14 15 15 15 16 16 16 15 15
25 25 25 25 28 29 29 28 27 26 26 26 27 26 26 27 28 29 27 25 23 23 25 26 26 28 27 25 24 24 24 23 23 22 21 21 21 21 21 21 21 20 20 19 17 15 13 11 10 9 7 5 3 2 3 4 4 4 4 5 6 7 8 8 8 8 8 8 7 7 9 11 12 13 13 14 15 16 16 17 17 17 17 17 16
26 24 23 24 26 27 27 27 26 25 25 26 26 26 26 27 28 26 23 21 21 22 24 26 27 28 27 26 25 25 24 23 23 22 22 22 21 21 21 21 19 19 18 17 15 14 11 10 9 9 6 3 2 3 3 4 4 3 3 5 6 6 6 6 6 6 8 9 8 8 9 11 12 13 14 15 15 15 16 16 17 17 17 17 16
27 25 24 25 25 25 25 26 26 25 25 26 27 27 27 27 27 26 24 24 25 25 26 27 28 28 27 27 26 26 25 24 24 23 22 21 20 20 19 18 18 17 16 14 13 12 10 9 9 8 5 3 2 3 3 4 3 3 4 5 6 5 4 4 6 7 8 10 10 10 10 11 12 13 14 15 15 15 16 17 17 17 18 18 17
27 25 26 26 25 25 25 25 26 26 26 27 28 29 30 30 29 27 26 27 27 27 29 29 29 29 28 28 27 26 25 25 24 23 21 20 19 19 18 17 17 16 14 13 11 10 10 10 9 6 4 3 2 2 2 2 2 3 4 5 6 6 5 6 8 9 9 9 10 11 11 12 12 13 14 14 15 16 17 18 18 18 18 18 17
26 27 27 28 27 27 28 28 29 29 31 31 31 32 32 32 31 29 27 27 28 30 31 31 30 29 29 28 28 27 26 25 23 21 20 19 19 18 17 17 15 13 12 10 10 10 11 10 7 5 3 2 2 0 2 2 2 3 3 5 6 7 7 8 9 10 9 9 9 11 12 12 12 13 13 14 15 16 17 18 19 18 18 17 17
28 29 30 31 31 32 32 33 33 34 37 38 36 35 33 32 31 29 27 27 30 32 33 32 31 30 30 29 28 27 25 24 22 21 20 20 19 17 16 14 11 11 11 11 11 12 10 8 7 5 4 3 2 2 3 3 3 3 2 4 5 6 6 7 8 9 8 8 8 9 11 12 13 13 13 14 16 17 19 20 20 19 18 17 17
30 31 32 33 34 34 33 34 35 36 37 37 37 36 35 33 31 30 29 30 32 34 34 33 32 31 30 30 28 27 25 23 22 21 21 20 17 16 14 11 11 11 12 13 13 11 9 8 7 6 5 4 4 4 3 3 3 3 3 3 4 5 6 6 7 8 7 7 8 8 10 12 12 12 14 15 17 19 21 21 21 20 18 17 17
29 30 31 32 33 33 32 33 34 35 36 36 36 37 36 34 32 31 32 33 34 35 35 34 33 32 31 30 28 26 25 23 21 20 19 18 16 15 13 12 12 13 14 13 12 11 10 9 7 6 6 6 6 5 4 3 3 3 2 2 3 5 6 6 7 7 6 7 7 7 9 11 12 12 14 16 17 18 20 21 21 20 19 18 19
29 32 33 34 34 34 34 35 35 37 39 39 38 37 35 34 33 33 35 36 37 37 36 35 33 32 31 30 28 26 24 22 20 19 17 16 15 15 14 13 14 15 15 14 12 11 10 9 8 7 7 7 6 5 4 3 3 2 1 2 3 5 6 6 7 7 5 5 5 5 8 10 11 12 14 15 15 17 19 20 19 19 19 19 20
30 33 35 35 35 36 36 37 37 39 42 42 40 38 36 35 35 36 38 39 39 38 36 34 33 33 31 29 26 24 22 21 19 17 16 15 15 16 15 15 16 16 16 14 13 12 11 9 8 7 7 7 7 5 4 3 2 1 2 4 5 6 7 7 7 6 4 3 4 4 6 8 9 11 12 13 13 14 16 17 17 17 18 18 19
30 32 34 35 35 36 37 38 39 40 40 40 39 38 37 37 37 39 40 41 40 37 35 34 34 33 30 27 24 22 21 20 18 16 15 16 17 17 15 16 17 18 17 15 14 12 11 10 9 8 8 8 7 5 4 3 2 2 2 4 5 6 7 6 5 4 3 2 2 2 4 7 8 9 10 10 11 13 14 15 15 16 17 17 17
29 32 35 36 36 37 38 39 39 39 39 38 37 37 38 40 41 41 41 41 39 37 36 36 35 31 28 25 23 22 21 19 17 16 16 17 18 17 16 17 19 18 17 15 14 12 11 10 9 9 8 7 7 6 4 3 3 4 3 2 3 3 4 4 3 3 3 1 0 1 3 5 7 7 8 10 11 12 13 14 15 16 17 18 18
29 33 36 35 34 35 36 37 37 38 38 39 39 39 41 42 42 41 40 40 39 38 38 37 35 31 27 25 24 23 21 19 17 17 18 19 18 16 17 19 20 19 17 15 14 13 11 11 10 9 8 7 6 6 5 5 6 7 6 5 4 3 2 2 1 2 3 3 2 1 2 4 5 6 8 10 10 11 12 13 14 16 18 19 20
28 30 30 28 27 28 30 34 36 37 38 40 41 42 42 43 43 41 40 39 39 39 38 37 35 32 28 25 24 23 21 19 18 18 20 20 17 15 18 20 20 19 17 16 14 13 12 11 10 9 7 6 5 6 6 6 8 9 7 5 4 3 2 1 1 2 2 2 2 2 2 4 5 6 7 8 9 11 13 13 13 15 17 18 20
23 26 25 24 23 24 28 33 35 36 38 41 42 42 41 42 43 42 40 40 40 39 39 39 37 34 30 27 26 24 21 20 20 21 22 20 17 17 19 20 20 19 17 16 14 13 12 11 9 8 6 4 4 6 7 6 8 8 7 4 3 2 1 3 4 5 6 7 7 7 6 5 5 6 7 7 9 11 13 13 14 16 17 19 20
18 20 21 19 20 25 30 34 35 36 37 39 40 41 41 42 43 42 41 41 41 42 42 40 36 31 27 25 24 22 20 21 22 23 22 18 16 19 20 20 19 18 17 16 15 13 12 11 10 8 6 4 3 5 6 5 7 7 5 3 2 1 1 3 5 7 8 8 8 8 7 7 7 7 7 8 8 10 12 13 14 17 19 21 21
16 18 18 17 21 28 32 34 35 36 36 37 39 40 41 42 43 42 42 43 44 43 40 36 30 26 24 23 21 20 21 22 22 21 19 14 14 19 21 20 18 17 16 16 15 14 12 11 10 8 7 5 3 3 5 4 5 5 3 1 0 1 1 3 5 6 6 7 7 8 8 8 7 7 7 7 7 9 11 13 14 16 20 22 21
13 14 15 16 21 27 29 31 34 35 35 37 38 40 41 42 43 44 45 45 44 39 35 31 26 23 22 20 19 21 23 23 22 21 18 14 14 18 20 19 18 17 16 16 16 15 14 12 11 9 8 7 4 2 3 3 4 3 2 2 2 2 3 3 4 5 5 5 6 7 7 7 6 6 6 6 6 8 10 11 12 15 19 20 21
10 10 11 15 19 24 27 31 33 34 35 37 38 40 41 41 42 45 45 43 41 36 31 27 24 22 20 19 21 23 25 24 23 21 18 16 16 18 18 18 17 16 16 16 17 16 15 14 13 11 10 9 7 4 3 2 2 2 3 3 3 4 4 4 3 3 4 4 5 6 6 5 5 5 5 6 6 7 9 10 12 14 16 18 20
11 9 10 13 17 22 27 31 33 34 35 37 38 39 40 40 41 42 41 38 35 31 26 23 23 22 21 21 24 25 25 24 22 19 17 17 18 17 15 15 15 15 16 17 18 18 17 15 14 13 12 11 9 7 4 2 2 3 4 5 5 5 4 3 3 3 3 3 3 4 3 3 3 3 4 5 5 6 8 10 11 13 14 16 18
11 9 11 14 18 24 29 31 33 35 36 37 38 39 40 40 41 41 38 33 30 26 22 22 24 25 23 24 26 26 25 22 20 18 17 17 16 15 13 12 13 14 17 19 20 19 18 17 15 15 14 13 12 9 7 4 4 5 6 6 5 5 4 4 3 2 2 2 2 1 1 0 1 2 3 3 4 5 7 8 9 10 12 15 17
12 12 13 16 20 25 29 31 32 33 35 36 37 38 40 40 39 38 35 29 26 25 24 25 27 26 25 26 27 25 23 21 19 18 17 15 14 14 13 13 13 14 17 20 21 19 18 17 16 16 16 15 13 11 8 7 6 7 7 6 5 5 4 3 2 2 2 1 1 0 0 1 2 2 2 2 3 4 6 6 7 9 10 13 16
15 15 16 18 21 25 27 28 29 30 31 33 33 34 37 38 37 34 31 28 27 27 28 29 29 27 26 27 27 25 22 21 20 18 15 12 12 14 14 14 14 15 17 19 19 19 19 18 17 17 17 16 14 12 10 8 9 9 8 6 5 5 4 2 2 1 1 1 1 1 1 1 1 1 2 2 2 3 5 5 6 7 9 11 14
17 17 18 21 23 24 24 25 25 25 26 27 28 30 32 32 31 29 28 28 29 29 30 30 29 27 28 28 27 25 23 22 21 18 14 13 13 14 13 11 12 15 18 19 19 19 19 18 18 17 17 16 14 12 11 10 11 10 8 7 5 4 3 1 0 1 2 2 2 2 2 1 1 1 1 2 1 2 3 4 5 6 8 9 12
19 20 21 22 24 24 23 23 24 23 22 21 21 22 22 23 25 26 26 28 29 29 30 30 29 29 29 28 27 26 25 24 22 19 16 14 14 13 9 7 8 13 16 17 18 17 16 15 16 16 16 16 14 13 12 12 11 10 9 7 5 3 2 1 0 1 2 3 3 3 3 3 2 2 0 1 1 2 2 3 4 5 6 8 11
22 23 24 24 25 25 24 22 20 18 16 14 14 14 14 15 18 23 25 27 29 29 30 30 30 29 28 27 27 26 23 23 22 20 17 16 14 11 8 6 7 9 10 10 11 12 12 11 11 12 12 12 13 13 13 12 12 10 9 8 6 4 3 2 2 2 2 2 3 4 4 4 4 3 1 0 1 1 2 2 2 3 5 7 9
23 24 24 24 24 24 23 20 15 12 12 13 13 14 13 12 16 21 24 26 29 30 29 29 29 28 27 28 28 24 22 22 21 20 19 18 15 12 9 9 10 10 9 7 6 6 7 8 8 9 9 8 8 11 12 12 12 11 9 8 6 5 4 4 3 1 0 1 2 3 4 5 5 3 2 2 1 1 0 1 1 1 3 4 7
22 23 23 22 22 22 20 17 14 13 14 14 12 13 15 15 18 22 24 26 28 29 29 29 28 27 29 29 26 22 22 23 21 19 19 19 16 14 14 14 13 13 12 10 8 6 6 7 6 7 9 9 10 11 11 11 11 11 10 8 7 6 6 4 3 2 1 2 3 4 5 7 7 5 4 4 3 2 1 0 1 1 1 2 4
Wind_Direction
199 206 203 202 207 212 212 203 202 203 198 200 198 198 206 201 189 188 188 186 185 184 182 183 185 188 192 195 197 197 197 199 204 208 211 211 209 205 202 203 204 205 207 213 223 229 234 241 245 243 233 225 226 236 251 266 286 297 303 305 305 306 308 307 305 305 305 304 301 298 297 298 298 295 292 291 287 286 294 297 294 295 297 299 299
194 194 192 196 202 208 209 204 204 202 197 202 201 190 192 197 196 194 192 189 186 184 184 187 191 193 195 196 197 197 198 201 205 208 210 211 208 204 205 206 208 212 211 213 224 233 237 241 241 235 228 230 238 252 267 283 293 298 301 303 304 304 305 304 303 305 308 309 309 307 304 303 300 299 295 285 280 291 302 300 298 303 306 307 306
189 187 187 194 199 202 202 200 203 203 199 202 203 192 183 187 197 200 200 195 189 189 190 193 194 196 198 198 199 201 203 204 205 208 211 208 203 200 202 205 207 213 212 211 226 234 235 232 231 228 231 238 245 257 269 281 289 294 297 298 299 302 305 305 305 308 310 313 315 315 315 313 313 314 304 290 295 304 307 305 307 312 313 312 311
189 186 186 191 198 200 199 198 199 200 201 201 198 193 185 183 194 203 206 201 196 196 197 197 196 196 198 201 204 207 208 208 206 209 211 205 200 197 201 201 204 212 205 199 216 225 224 220 221 227 239 250 258 262 268 276 283 289 294 297 300 302 304 304 306 309 313 318 320 321 321 319 320 323 315 308 311 316 316 314 314 315 315 316 315
190 185 188 193 197 198 197 197 198 199 201 199 193 190 188 185 192 203 207 204 201 201 201 201 198 196 197 201 206 209 210 211 210 210 207 202 199 198 200 200 205 209 192 183 200 210 217 218 220 231 246 262 270 275 282 289 292 294 298 300 303 305 304 304 306 309 313 318 320 321 323 318 317 320 319 314 314 318 319 319 319 319 318 319 319
193 189 190 193 194 195 196 197 199 199 200 198 193 190 189 187 190 199 204 203 201 202 203 203 201 200 201 203 206 208 210 211 211 207 201 198 197 198 200 201 207 204 185 184 200 208 218 223 228 240 255 267 278 288 296 301 303 302 302 302 303 303 302 303 304 306 309 310 309 310 309 305 309 315 318 315 313 316 317 319 322 322 320 321 322
191 190 190 192 192 192 194 197 199 200 200 198 193 191 191 188 190 197 202 201 200 202 204 205 206 206 208 210 211 211 211 211 208 203 199 196 196 198 198 200 206 201 188 195 210 216 225 234 244 259 274 283 291 296 297 299 299 298 299 299 301 302 302 302 303 304 307 305 302 301 299 299 304 311 317 319 318 317 316 318 322 322 321 324 325
189 188 192 194 193 193 194 197 199 199 198 196 194 193 194 192 193 197 199 199 201 203 205 207 209 210 212 215 215 214 212 209 205 200 197 196 197 196 193 199 204 200 198 209 219 227 234 242 257 276 290 295 295 294 294 294 294 295 297 300 303 305 304 303 303 303 305 305 303 302 302 303 306 309 314 319 321 319 317 318 322 323 323 327 332
191 192 195 196 196 196 197 198 198 198 197 198 196 194 195 195 197 199 198 199 201 204 206 209 211 213 214 213 211 210 210 209 206 200 196 195 196 193 193 200 203 200 209 222 229 237 240 247 265 281 290 293 291 290 291 292 293 294 297 300 302 303 303 302 303 302 303 305 304 303 305 307 309 310 313 318 320 317 315 318 324 325 324 328 335
193 196 198 198 198 197 197 198 197 197 199 200 198 196 196 198 199 199 199 200 203 205 207 210 212 213 210 206 205 206 207 207 204 199 197 195 193 192 195 201 203 204 214 226 235 241 245 254 267 277 283 287 288 290 291 291 293 295 297 298 299 299 299 300 301 299 297 295 295 300 307 313 316 317 318 319 317 314 315 317 319 320 320 324 333
195 198 199 198 197 196 197 198 197 198 200 199 198 197 198 200 200 199 200 201 203 205 208 210 211 209 204 202 202 204 205 203 200 198 196 193 192 195 199 201 203 209 218 227 237 243 247 254 264 276 284 289 291 292 294 294 295 297 297 297 297 298 299 300 299 294 291 289 292 298 301 307 315 317 316 316 316 315 314 312 313 318 318 319 326
196 197 197 195 194 195 197 198 199 199 198 198 198 198 199 201 200 200 202 202 204 207 208 210 210 206 202 201 203 205 205 201 199 200 197 193 194 198 201 202 204 212 221 230 239 244 248 255 272 288 292 293 294 295 297 298 298 298 296 295 294 294 295 295 292 290 293 297 301 303 302 302 307 308 310 312 313 311 308 307 311 317 315 314 320
197 196 195 194 194 195 198 199 200 200 198 198 198 198 199 201 201 202 204 204 206 208 209 208 207 204 202 202 204 207 206 204 201 202 200 197 199 202 203 204 208 214 222 231 239 244 250 260 282 295 296 295 295 298 300 300 300 297 294 291 287 286 288 288 288 293 302 310 310 308 307 305 301 300 302 304 306 306 305 305 307 309 309 311 316
197 196 194 195 195 197 200 201 200 200 199 198 199 199 200 202 203 203 205 206 207 209 208 206 205 205 204 205 207 209 208 205 203 203 202 200 203 207 206 206 213 219 224 232 238 244 252 264 284 294 297 299 299 300 299 298 296 292 287 283 280 282 285 289 292 296 302 305 304 304 304 300 297 297 297 297 299 300 300 301 302 304 305 306 311
197 196 195 196 197 200 202 202 201 199 198 199 200 199 200 202 203 203 205 206 207 207 206 204 203 204 205 206 209 210 207 204 202 202 203 202 204 209 209 210 218 224 228 233 239 246 255 268 285 294 297 300 301 300 297 294 289 283 278 277 281 285 289 295 298 297 294 292 292 295 296 295 294 294 295 296 297 297 296 295 295 298 301 303 306
196 196 196 197 199 202 203 202 200 199 198 199 199 199 199 201 202 203 206 206 205 204 202 201 202 203 204 206 207 206 204 202 200 200 202 203 206 210 211 214 220 226 230 235 242 250 260 275 289 296 297 297 299 298 294 288 281 276 275 278 283 287 292 296 297 297 295 293 292 294 295 295 297 299 301 303 303 301 297 294 291 290 294 299 302
196 196 197 199 200 202 203 201 199 197 197 198 199 199 199 201 202 203 206 205 202 200 199 199 201 202 203 203 203 202 200 200 200 200 201 203 206 211 214 217 222 227 232 238 247 256 267 281 292 296 295 294 296 295 287 278 273 274 277 280 286 292 297 299 299 302 302 301 302 302 303 303 304 307 308 307 307 303 299 295 292 290 288 291 297
197 197 199 201 202 203 201 199 197 194 195 198 199 200 200 201 203 204 205 202 198 197 197 198 200 201 202 201 201 200 198 199 201 203 203 204 207 211 215 220 225 229 234 242 252 262 272 285 292 293 291 291 292 287 277 271 273 278 277 277 287 296 303 305 305 306 305 306 306 306 309 311 311 314 314 314 315 311 306 299 296 295 289 284 286
199 199 200 201 203 202 198 197 196 193 193 196 199 200 200 202 205 207 206 201 197 198 197 196 198 199 200 200 199 198 198 200 203 205 206 206 209 213 216 221 225 230 237 246 257 265 274 284 289 288 287 285 281 275 270 271 278 282 278 281 291 298 305 307 307 308 308 309 310 313 320 326 329 331 333 334 333 330 325 316 308 303 294 284 280
199 199 199 200 202 200 195 195 195 193 192 195 198 199 200 201 203 209 210 203 199 200 197 194 195 196 198 198 198 198 201 203 203 205 207 208 211 215 217 221 225 233 243 252 260 266 273 281 283 282 279 275 271 268 267 272 278 279 280 289 300 306 309 311 311 312 314 319 325 333 342 347 348 348 350 348 346 346 342 337 331 321 311 302 296
198 197 196 198 199 195 191 192 194 193 193 195 198 198 198 199 201 207 210 204 200 199 196 194 193 195 197 197 198 201 204 205 203 205 208 209 211 216 219 224 230 240 249 255 261 266 271 276 278 276 272 266 263 259 258 270 275 276 282 293 305 311 311 313 315 318 326 337 346 353 356 1 5 4 4 2 360 359 356 353 350 342 338 327 315
193 193 194 195 194 189 186 188 190 191 192 195 199 198 197 199 201 207 210 206 201 196 192 193 192 193 197 199 201 204 204 204 204 205 207 208 211 217 223 229 237 244 251 256 260 264 268 270 270 269 264 251 244 244 252 274 280 285 295 303 309 315 320 324 326 330 339 350 358 4 9 14 17 16 18 19 17 16 12 10 8 1 357 348 334
186 189 192 192 190 186 184 186 189 190 192 195 198 198 200 203 203 205 208 206 202 195 190 192 192 192 197 201 203 203 202 202 204 206 207 209 215 222 229 237 243 248 252 254 257 259 260 258 257 256 246 226 225 245 268 282 285 293 305 310 316 328 337 340 339 339 348 4 17 21 23 26 25 22 25 26 25 24 21 18 17 14 8 3 356
181 185 188 185 183 183 183 185 187 187 191 195 196 197 200 201 200 200 202 203 204 199 194 193 192 192 196 200 202 201 200 202 206 209 210 214 220 227 235 243 248 251 253 253 253 252 247 244 242 239 230 214 213 247 275 291 301 307 316 322 330 342 348 347 347 349 360 18 33 36 34 32 29 27 28 29 29 27 25 23 21 19 15 10 6
180 179 177 175 176 177 179 183 184 185 191 194 194 197 198 197 201 204 202 203 205 203 199 196 193 193 196 199 201 201 201 204 207 210 214 217 224 232 240 247 250 253 254 253 248 241 235 231 227 223 217 203 207 250 280 305 316 323 333 336 342 350 353 354 2 9 13 20 29 36 35 31 28 28 30 32 32 29 27 26 24 24 22 17 13
176 172 168 168 170 173 176 181 182 183 190 194 194 196 197 198 206 208 203 201 200 197 197 196 195 196 197 198 200 201 202 205 208 211 215 221 229 237 244 250 253 256 256 249 239 231 223 216 213 210 202 184 211 260 296 319 327 345 351 346 351 355 357 11 23 27 26 22 23 26 28 27 25 26 30 30 30 30 28 27 26 25 24 20 18
170 165 164 165 168 173 176 181 185 185 188 195 197 198 199 201 206 208 205 203 197 193 195 197 197 198 198 198 200 202 203 205 209 214 219 226 236 243 249 255 257 256 252 242 229 217 207 204 205 202 188 179 221 274 324 349 5 23 9 357 6 9 11 27 30 31 33 28 22 22 25 27 25 25 29 29 28 29 28 28 27 26 24 22 22
166 165 165 166 170 177 180 183 188 190 191 196 200 201 202 203 204 205 206 201 195 193 196 198 198 198 198 199 199 201 204 207 211 216 223 232 240 247 255 260 256 246 237 226 208 195 194 196 197 188 172 178 220 284 49 60 61 51 20 13 23 20 20 30 30 26 29 26 19 22 25 25 24 26 28 28 28 27 26 27 26 25 24 26 28
166 169 170 171 175 182 184 185 189 192 195 196 197 198 199 200 202 204 202 197 193 194 196 197 197 197 197 199 199 201 204 208 213 219 227 235 242 253 262 258 242 225 216 201 187 185 187 186 182 174 166 168 155 107 94 96 89 72 41 26 27 23 23 27 22 18 23 22 17 23 27 24 23 24 26 27 26 23 22 22 22 22 24 28 32
167 172 174 177 180 182 184 187 189 192 196 196 195 194 196 199 202 202 198 195 195 195 196 196 195 195 196 198 200 202 205 210 216 223 232 241 248 256 257 241 217 207 198 187 182 181 178 174 172 168 161 150 133 116 113 114 103 88 66 31 12 12 14 10 4 5 13 18 19 25 27 24 22 24 24 24 23 21 21 21 21 21 23 27 31
167 171 175 178 180 182 187 191 192 194 195 195 195 194 194 197 199 198 196 195 196 196 195 194 193 194 196 198 200 203 207 213 219 227 237 245 249 247 237 217 203 195 185 179 179 176 172 169 163 156 149 141 134 129 127 120 108 97 75 27 353 349 348 344 342 345 0 23 30 28 27 25 25 26 25 22 21 20 19 20 21 21 24 28 30
167 172 176 180 183 188 192 193 192 193 194 195 195 194 194 196 196 195 195 195 196 196 193 192 193 194 196 199 201 204 209 215 223 232 239 241 237 232 222 206 195 186 178 176 175 172 168 163 155 150 146 140 137 136 133 123 106 92 45 348 332 322 319 320 323 327 344 21 39 33 26 27 28 28 25 22 19 17 16 19 22 23 25 28 28
172 175 179 185 190 193 194 193 194 196 197 198 198 197 199 200 196 194 194 193 194 194 192 192 194 196 197 199 203 207 212 220 228 233 235 231 226 225 217 202 188 179 175 175 172 168 163 156 151 150 148 143 142 140 133 118 85 26 328 313 303 298 299 302 308 311 326 11 50 43 25 30 33 27 24 22 18 15 14 18 22 22 23 26 26
178 183 188 193 195 194 195 196 197 198 198 198 198 199 200 198 195 193 192 192 193 193 193 193 194 197 200 203 208 213 218 225 230 231 229 223 219 218 209 192 180 174 173 173 168 164 160 155 153 153 150 145 141 133 118 98 59 10 335 308 292 289 290 290 290 290 298 344 51 42 29 41 36 23 26 29 21 15 13 15 18 20 23 26 26
185 192 197 199 198 195 195 196 197 198 197 196 196 196 193 191 192 192 191 193 194 194 194 194 195 199 203 206 212 218 222 226 228 228 223 215 214 210 194 179 174 172 172 170 165 163 162 159 156 154 150 143 133 121 109 88 58 46 37 12 330 308 298 287 275 265 260 258 75 44 38 45 34 26 35 34 21 18 21 19 18 21 24 25 26
195 199 201 200 197 193 193 197 199 200 200 198 197 195 190 187 188 192 193 195 196 194 194 195 198 202 205 210 215 218 222 225 226 224 214 206 207 199 180 173 172 170 170 168 165 165 166 162 158 153 149 144 133 122 106 74 47 44 46 38 25 10 344 315 274 242 235 226 214 312 3 28 41 44 38 27 22 29 35 30 24 26 29 27 27
200 201 200 195 192 193 197 203 206 204 202 199 197 195 191 188 188 192 196 197 196 195 197 200 203 203 205 210 214 219 223 223 221 215 204 198 197 186 174 174 174 171 170 171 170 169 166 163 159 155 152 150 140 120 95 62 42 40 41 36 26 22 26 45 84 109 133 165 150 99 49 53 64 55 36 31 38 43 42 38 32 33 35 34 32
201 200 198 193 194 202 209 212 210 206 201 196 194 193 191 190 190 193 196 199 199 200 202 203 202 200 202 207 214 222 224 218 212 204 196 192 188 179 176 176 175 173 172 173 174 172 166 163 163 159 155 158 142 115 93 61 40 36 35 33 25 16 51 90 95 99 101 104 105 102 94 80 65 53 47 51 51 44 41 40 35 35 39 41 38
204 206 207 202 199 205 211 210 207 204 199 195 195 194 193 193 193 194 198 202 202 201 201 199 197 197 201 208 215 221 216 207 203 195 188 187 184 177 175 173 173 176 176 175 177 177 171 167 166 165 163 166 145 113 100 68 39 36 37 34 17 348 94 114 113 112 111 110 107 101 93 79 66 62 59 51 42 35 35 36 32 31 37 39 36
209 212 215 211 205 205 207 208 207 205 200 197 197 196 196 197 197 198 201 202 199 196 195 194 194 197 204 209 212 213 205 199 197 191 185 186 182 175 173 172 173 178 180 180 180 181 179 175 171 173 175 173 162 121 112 82 40 39 56 68 286 240 166 139 132 127 120 113 104 94 86 78 70 66 58 41 31 29 28 29 27 28 32 33 29
212 212 210 208 207 206 207 209 209 206 201 198 198 198 199 200 199 199 201 201 197 194 193 193 195 199 204 206 204 201 196 193 192 190 186 186 180 174 173 173 174 180 185 187 186 184 184 181 177 179 178 171 171 162 128 96 55 60 115 160 207 202 179 164 154 146 134 117 102 91 83 75 64 60 57 47 37 31 27 24 22 25 28 26 22
196 197 200 204 206 207 207 207 205 203 199 196 196 196 197 198 195 193 196 196 193 192 192 193 195 198 200 196 190 189 189 186 185 184 183 180 176 174 173 173 175 182 188 191 191 187 187 188 184 179 178 174 172 176 166 121 93 124 157 176 193 189 175 173 173 161 143 122 104 93 82 68 50 43 45 48 45 34 27 23 20 20 22 20 18
177 178 194 204 205 206 207 206 205 202 199 199 200 199 197 196 193 191 192 191 189 189 190 190 191 189 186 182 180 181 183 182 180 182 183 178 172 172 174 176 180 186 191 194 194 191 191 193 188 178 177 181 179 179 185 188 175 174 177 180 186 181 167 168 180 170 144 124 113 106 94 68 37 24 24 31 35 28 21 20 19 16 15 15 16
179 179 193 204 207 205 204 204 204 203 201 203 206 204 200 197 195 194 193 190 187 187 187 188 187 181 174 174 176 178 180 180 179 180 181 177 172 174 179 182 185 191 195 195 195 194 195 196 191 183 181 185 187 188 194 198 193 189 186 184 183 175 164 167 177 166 136 119 120 130 132 210 295 341 5 11 11 12 13 14 14 12 10 11 14
185 185 192 203 210 208 203 199 199 200 200 201 203 201 197 194 193 192 190 187 185 183 181 182 182 177 171 172 175 176 179 179 177 177 178 178 179 180 180 180 182 189 193 192 193 196 198 197 194 190 188 188 191 197 202 199 191 188 188 186 179 170 167 170 169 150 123 112 116 179 245 261 270 291 330 341 347 3 10 7 5 5 6 9 13
192 188 188 196 203 204 199 193 191 193 195 196 197 197 194 191 189 188 185 183 181 179 178 177 177 175 173 174 175 176 177 178 177 178 180 184 186 182 178 178 182 187 190 192 194 196 198 198 197 196 194 193 196 202 205 198 187 185 186 186 180 173 170 168 155 136 115 88 61 20 351 316 304 301 297 305 331 7 13 4 1 2 4 8 12
198 191 189 193 196 194 190 185 183 184 187 187 187 189 189 188 185 182 180 179 177 176 175 174 174 175 175 176 177 176 177 179 179 178 180 187 190 186 182 184 190 191 190 194 198 199 198 198 198 197 197 198 200 202 198 190 184 184 185 186 185 184 181 191 220 127 96 80 68 55 45 32 4 320 277 284 334 7 2 357 0 3 4 10 14
197 191 190 190 190 189 187 183 180 179 178 179 181 183 184 184 181 178 177 177 176 174 174 174 176 176 175 178 180 178 177 179 178 177 182 190 192 190 192 203 206 196 191 194 198 198 196 198 199 198 197 198 197 195 189 185 183 183 185 188 193 201 209 222 257 112 102 93 88 74 60 56 49 32 329 271 294 306 320 342 0 6 8 15 17
194 189 188 189 190 189 182 172 167 165 162 163 171 175 175 179 183 182 178 176 176 177 177 177 177 176 177 179 179 178 179 181 180 181 187 191 190 192 203 211 199 189 189 195 194 188 187 191 197 199 197 194 190 184 182 184 184 185 188 191 197 211 223 218 192 147 111 85 76 68 58 52 45 37 43 62 278 285 302 330 5 20 21 19 12
193 188 189 192 193 188 177 162 154 158 163 166 170 171 173 182 190 188 184 180 180 180 179 178 178 179 181 179 177 177 182 185 185 186 189 189 189 189 190 186 174 167 169 176 175 171 175 180 187 191 188 184 184 183 183 186 188 190 194 197 202 214 221 216 202 175 105 16 24 39 55 63 61 53 58 68 66 65 266 273 324 18 19 11 4
194 191 189 189 187 183 179 174 174 179 182 183 182 179 178 182 186 187 187 186 184 182 180 179 180 183 183 180 178 182 186 187 188 190 191 192 190 180 169 164 159 154 155 158 157 158 162 164 173 182 181 178 182 186 189 192 195 198 200 199 199 201 200 197 196 208 266 300 335 4 37 62 70 72 77 79 78 78 91 171 244 289 315 357 7